Lapse_Rate
4.8 5.5 5.5 4.9 1.0 0.0 -1.2 -2.4 -2.1 -0.2 -0.2 -0.6 -1.4 -2.4 -2.1 -1.7 -0.9 0.6 2.3 3.9 5.2 5.3 5.4 5.1 5.2 4.6 4.0 4.6 3.7 3.1 3.0 3.0 5.5 5.8 3.8 3.4 3.0 4.0 3.5 3.9 3.5 2.9 3.5
4.3 4.1 6.1 5.1 1.9 -0.0 -1.4 -2.1 -1.9 -1.3 -1.6 -2.7 -2.2 -2.7 -3.9 -1.5 -2.2 -1.2 -0.6 0.3 1.2 1.1 2.8 4.2 4.5 4.3 4.2 3.8 3.8 4.1 4.3 4.6 5.8 6.3 4.1 3.5 4.0 4.0 4.3 4.2 3.7 4.1 3.9
5.0 4.8 6.4 4.6 0.6 0.7 0.3 -1.9 -2.1 -1.2 -1.5 -4.3 -3.3 -2.9 -3.3 -2.9 -3.4 -2.2 -1.5 -1.6 -1.1 -1.3 -1.3 0.1 -0.7 -1.3 -0.7 0.1 3.0 4.7 4.9 5.0 4.8 5.5 5.4 3.7 4.8 4.0 3.9 4.0 4.1 4.1 3.7
5.8 6.4 5.7 5.4 3.3 2.6 2.2 0.2 -2.5 -1.8 -2.2 -2.6 -3.1 -2.9 -3.1 -3.0 -2.9 -2.4 -2.8 -2.7 -2.1 -2.2 -2.6 -1.9 -2.4 -3.1 -3.1 -2.9 -1.0 -0.3 2.4 5.0 5.8 5.6 5.7 5.6 4.4 3.6 5.1 5.0 4.9 4.2 4.5
4.6 5.0 5.4 5.6 4.6 2.5 0.0 0.9 1.0 0.5 -0.4 0.2 -1.2 -2.3 -3.1 -2.8 -3.3 -3.1 -2.5 -3.0 -2.7 -2.8 -3.1 -2.4 -2.6 -3.7 -3.8 -4.2 -2.5 -2.4 -2.1 0.5 4.5 5.5 5.6 5.2 5.0 3.8 4.6 4.3 5.2 4.4 3.6
4.2 5.3 4.6 3.8 4.2 3.1 2.0 -0.3 0.2 1.0 0.7 0.3 0.2 -0.1 -0.8 0.2 0.4 -0.5 -1.9 -2.3 -1.8 -2.0 -3.0 -2.5 -1.5 -2.3 -2.8 -2.8 -2.9 -4.2 -4.9 -2.9 -1.0 -0.0 4.0 5.7 6.3 4.9 4.1 3.8 4.7 4.5 4.1
4.7 4.4 4.9 4.7 4.2 3.7 1.9 0.7 1.5 1.9 2.1 2.3 1.0 0.3 1.4 1.5 1.1 0.6 -0.2 -0.7 -1.3 -1.5 -1.9 -2.5 -2.1 -2.3 -3.0 -2.1 -0.9 -1.7 -2.8 -3.5 -5.4 -3.4 -2.0 -3.0 -3.1 -4.3 -4.0 3.6 5.1 4.9 5.4
4.9 4.7 4.6 4.5 3.4 2.9 2.6 1.9 1.4 1.8 1.2 0.9 -0.0 -0.4 -0.2 0.9 0.7 0.4 0.5 0.1 -0.2 -0.5 -0.5 -0.4 -0.6 -0.7 -1.2 -1.7 -1.3 -0.9 -2.1 -2.4 -3.0 -2.9 -3.5 -3.4 -4.7 -5.1 -4.2 -3.0 -2.3 -0.8 0.5
5.9 5.4 5.1 4.2 2.9 2.7 2.1 2.8 2.4 2.8 2.4 1.9 1.2 0.3 -0.3 0.1 1.2 0.8 0.4 0.7 1.1 0.9 1.1 1.0 0.3 -0.0 0.4 -0.2 -1.1 -0.7 -1.0 -1.8 -1.1 -1.0 -1.7 -1.7 -2.2 -3.3 -2.9 -2.8 -1.1 -0.7 -0.0
6.5 6.2 5.5 4.8 3.4 1.7 1.6 2.1 3.0 2.2 1.8 1.8 1.9 0.9 0.9 0.1 1.7 1.8 1.3 0.4 0.6 1.3 1.2 0.9 1.7 1.7 1.6 0.6 -0.3 -0.4 -1.0 -1.3 -1.1 -0.8 -0.6 -0.8 -0.8 -1.7 -1.8 -3.8 -3.3 -0.9 -0.3
7.1 7.2 6.8 5.4 3.8 3.0 1.9 1.1 0.4 0.9 0.7 0.6 0.7 0.5 -0.5 -0.3 -0.1 1.9 2.2 1.1 1.4 2.4 2.2 2.1 2.3 3.4 3.1 2.7 2.0 1.5 1.7 0.5 -1.0 -0.4 0.1 0.6 0.8 0.3 -0.5 -1.7 -1.9 -2.2 -1.2
7.3 7.0 7.1 6.8 6.6 4.1 2.5 2.4 1.9 1.0 0.1 -0.1 0.1 -0.0 -0.2 -0.6 1.1 1.8 2.9 3.4 3.5 3.2 4.1 4.7 4.5 4.7 3.8 3.7 2.6 3.3 2.6 0.1 -0.3 0.0 0.5 0.3 0.3 0.8 1.3 0.9 0.3 -0.3 -1.1
7.2 6.7 7.1 7.2 7.3 6.9 5.2 4.5 3.4 2.5 1.7 1.6 1.2 0.4 0.3 0.3 0.3 2.5 2.9 3.6 3.9 3.9 6.1 7.4 7.0 6.7 5.0 3.0 4.1 3.3 1.9 2.1 1.6 1.8 2.1 2.1 2.0 1.9 1.7 2.0 1.0 0.9 0.6
6.8 7.0 7.8 7.3 7.0 6.0 6.6 5.6 4.4 3.6 4.0 3.9 3.2 1.5 0.3 1.4 1.8 2.1 2.3 2.8 3.6 4.4 6.9 6.8 5.5 6.0 3.1 2.5 1.6 2.4 2.2 2.6 3.4 3.6 3.1 0.9 1.0 1.4 1.3 1.8 0.7 0.7 1.2
6.2 6.3 5.9 7.0 6.8 6.7 6.2 5.0 5.8 4.0 5.6 4.8 2.1 2.1 1.6 4.0 6.8 8.5 7.9 7.4 6.7 7.4 7.3 4.2 3.3 3.6 3.1 3.2 3.3 3.4 3.2 3.1 2.7 2.6 3.2 2.2 1.1 1.0 1.6 1.6 2.0 1.3 2.5
4.8 6.2 6.1 6.7 7.0 7.2 6.7 6.7 7.6 6.0 7.5 7.7 7.4 4.4 2.7 7.9 9.1 9.4 7.5 7.3 8.0 7.3 4.5 3.4 3.4 3.8 5.1 4.0 4.4 3.5 2.9 3.9 5.3 5.1 3.4 4.0 4.4 3.6 3.1 3.1 2.8 2.5 3.1
3.7 7.0 6.2 6.6 7.2 7.5 7.3 7.1 6.3 6.6 8.3 7.6 7.6 7.9 8.1 8.6 9.2 9.5 9.1 7.4 7.2 6.1 5.4 4.4 2.1 3.6 5.1 6.3 6.1 6.1 6.7 5.6 5.8 5.5 4.9 5.4 5.3 5.4 4.8 4.6 4.2 4.4 4.2
2.5 5.5 4.5 4.4 4.5 4.7 4.4 4.6 3.7 3.1 3.3 4.1 5.9 7.2 7.9 8.7 9.4 9.2 8.0 6.6 4.6 5.4 6.2 7.0 6.4 5.8 6.4 6.3 6.3 6.4 6.5 5.5 5.7 6.2 5.8 5.5 5.3 5.4 4.3 5.1 5.2 3.3 4.1
5.0 4.4 2.2 3.1 3.5 2.8 4.0 4.1 2.8 3.0 3.2 2.9 2.8 3.5 4.5 7.9 8.6 8.2 7.8 3.3 3.7 5.6 6.5 6.8 7.6 6.6 5.7 5.7 5.0 5.2 5.6 5.1 4.4 4.0 4.8 5.0 5.5 5.4 2.7 3.8 3.8 2.0 3.9
3.1 4.6 4.1 4.6 4.8 4.5 3.9 4.2 5.4 5.2 5.8 4.6 4.1 4.7 4.7 3.6 1.1 0.1 1.3 -0.8 0.7 3.0 3.8 6.0 7.1 6.9 5.0 5.3 4.4 4.6 5.4 4.1 3.3 3.7 3.0 3.2 4.9 5.2 5.0 3.7 3.1 2.4 4.4
2.1 4.0 4.2 5.9 5.1 5.3 3.9 5.0 4.9 5.0 4.8 4.8 4.6 1.8 3.7 5.1 4.7 1.9 2.9 1.5 1.7 2.4 1.7 3.3 4.5 5.3 4.8 5.5 5.3 3.0 3.5 2.2 2.1 2.5 3.1 3.4 3.9 5.2 5.5 5.3 4.4 4.5 4.3
4.2 5.7 6.2 5.7 5.9 4.4 4.3 5.7 4.2 4.3 5.2 4.8 4.1 5.1 4.4 3.6 6.8 5.5 3.5 1.8 0.5 2.5 4.7 2.7 2.7 3.4 3.3 4.6 3.9 -1.3 -0.2 -1.2 -0.5 0.9 1.7 2.2 3.1 4.7 5.2 3.2 3.2 2.8 3.4
5.3 4.8 5.7 6.5 5.5 4.9 3.4 4.5 3.5 2.2 3.0 1.9 2.9 4.0 3.4 2.6 3.8 5.1 4.9 2.8 2.6 3.6 6.4 5.6 3.3 2.7 6.0 5.0 4.3 2.4 -1.1 -1.1 -0.8 -0.9 -0.3 0.9 1.5 4.5 4.8 3.4 2.9 2.8 2.3
5.5 4.4 6.2 6.5 4.9 5.1 2.1 1.3 2.5 3.3 3.7 2.5 0.5 1.3 1.3 1.5 1.7 2.8 2.0 3.3 4.6 5.3 6.0 6.6 5.8 5.3 6.2 5.4 5.0 4.2 3.0 2.3 1.2 0.2 -0.3 1.1 1.9 4.2 3.6 4.4 3.4 2.0 1.7
3.9 3.9 3.9 4.9 5.1 4.7 5.5 4.5 4.4 4.3 4.6 5.3 3.9 1.9 2.2 1.0 2.5 1.1 1.2 3.8 5.5 4.1 5.9 6.9 6.4 6.0 6.3 5.7 5.1 4.6 4.0 3.2 2.5 2.2 1.4 2.1 1.9 2.4 1.7 1.9 3.0 3.8 2.7
5.7 6.6 6.7 6.8 6.9 6.7 6.3 6.0 6.7 6.4 6.6 6.6 6.2 6.3 6.7 5.6 3.0 1.5 1.1 0.8 1.5 4.8 6.5 6.9 6.7 6.9 6.6 5.4 5.3 5.2 4.9 4.1 3.2 3.5 2.9 2.4 0.4 1.2 2.9 1.4 3.5 4.0 3.6
Wind_Speed
14 14 12 9 13 13 14 16 17 13 16 16 10 17 16 13 10 10 6 1 12 11 9 9 10 9 7 7 4 4 4 8 12 12 6 8 7 10 7 15 15 15 16
13 11 10 10 17 18 19 19 18 14 14 19 15 17 19 11 13 11 9 8 8 13 9 4 6 6 7 6 4 5 8 10 11 16 5 5 7 8 10 12 9 14 13
12 11 10 17 23 22 19 19 21 18 16 20 19 18 18 15 18 14 12 13 12 11 11 10 11 13 11 9 6 7 7 7 8 7 10 4 8 3 5 6 9 10 13
13 15 20 19 20 20 20 20 23 16 19 18 17 15 16 16 17 15 16 14 12 12 13 12 13 13 11 10 9 8 8 7 9 9 9 9 6 4 6 7 7 7 9
18 20 20 18 17 19 25 23 19 18 17 15 17 18 19 18 15 15 14 13 13 13 15 13 13 16 16 12 7 9 9 6 7 7 8 6 6 4 8 4 9 6 6
18 19 19 20 20 20 18 22 22 19 18 18 19 20 20 14 21 23 18 15 15 14 14 13 12 16 17 14 9 12 11 7 5 4 7 11 17 8 5 6 7 5 4
17 18 18 18 18 19 22 21 19 18 14 15 18 20 19 18 28 25 21 12 12 13 15 14 13 11 17 12 9 7 9 13 6 6 5 4 6 9 8 6 9 7 9
16 17 17 17 19 19 18 19 18 15 17 16 19 19 18 19 29 26 22 14 13 14 13 14 13 14 17 14 10 8 9 9 9 6 6 5 2 6 6 5 5 7 4
11 12 15 16 18 17 19 18 16 13 14 16 16 17 17 18 30 28 18 12 13 12 11 13 13 14 21 21 11 10 9 9 11 15 13 12 14 15 13 5 2 3 2
10 9 7 12 15 17 17 15 12 12 14 11 12 15 22 16 28 28 19 9 10 8 9 10 20 17 22 23 13 11 10 9 9 9 9 10 10 9 14 8 5 3 2
10 12 11 12 14 13 14 14 13 12 11 11 11 12 15 18 18 27 26 10 9 7 7 8 8 18 20 22 19 11 10 6 6 5 5 6 7 8 7 7 7 5 3
12 11 13 10 10 9 12 10 9 9 11 11 11 10 10 11 22 22 23 21 19 7 8 7 8 17 17 19 13 19 17 7 4 4 6 7 6 7 7 5 6 5 5
12 13 11 11 8 8 7 7 6 7 8 9 9 9 9 9 7 18 18 21 18 9 7 11 15 15 14 8 18 18 11 8 5 7 8 7 6 6 7 5 4 7 7
11 10 8 8 8 5 5 4 5 4 5 6 5 4 3 6 7 9 9 9 12 8 6 6 9 10 9 8 6 9 7 6 5 6 5 4 4 4 5 6 4 4 4
9 10 9 8 7 7 4 2 3 0 4 2 2 2 3 5 8 14 14 9 6 8 7 5 7 7 7 7 7 7 7 7 7 5 5 4 3 3 3 3 3 2 5
8 8 7 6 4 4 4 4 5 4 6 9 11 4 1 10 16 19 22 22 23 19 7 5 6 5 7 6 6 5 4 5 6 5 4 4 4 4 4 3 2 3 4
8 8 6 7 6 6 5 6 6 7 9 4 10 15 19 19 18 19 20 19 20 15 7 5 3 4 5 7 7 7 6 5 7 5 3 5 5 3 3 4 2 2 4
6 6 4 4 5 4 4 5 4 3 4 5 6 10 16 17 16 17 17 11 6 9 6 6 5 5 6 7 8 7 7 7 7 7 7 6 6 3 2 5 5 2 1
7 4 3 3 3 3 4 4 3 3 3 3 3 4 7 12 13 13 13 3 2 4 5 6 6 5 5 6 6 7 7 6 6 7 8 7 7 5 3 3 5 5 3
6 6 5 4 4 4 3 3 4 3 4 3 2 1 2 3 2 2 1 2 2 1 2 4 6 6 5 6 5 6 7 8 8 7 7 8 8 6 4 4 4 3 3
3 4 5 5 4 4 3 4 3 3 4 4 4 3 5 2 3 1 0 1 2 1 1 1 1 2 3 6 6 5 6 6 7 8 7 8 8 7 6 4 5 5 5
2 4 3 3 2 2 2 3 3 3 4 3 3 4 8 2 2 2 1 1 1 1 1 2 1 2 3 4 4 3 3 4 5 7 8 8 8 7 6 3 3 3 3
3 3 4 4 3 4 3 3 3 3 3 3 3 3 2 3 3 2 3 2 1 0 1 3 3 1 5 7 8 7 2 3 5 7 5 7 7 6 6 3 3 3 4
4 4 5 5 4 3 3 3 4 5 4 4 4 3 3 3 3 3 2 2 3 3 5 3 7 6 2 1 4 6 8 11 14 13 11 5 6 7 3 2 3 3 3
4 4 4 4 5 4 5 4 4 5 5 5 5 4 3 4 3 3 3 3 5 4 4 6 7 9 5 7 2 3 8 11 14 16 13 9 4 5 4 2 3 2 4
6 8 8 8 8 8 7 6 6 6 7 6 4 4 6 6 4 3 3 2 2 4 4 1 6 8 5 10 3 2 7 11 14 17 16 10 4 4 4 4 6 3 3
Wind_Direction
353 356 1 0 46 43 45 43 40 32 72 59 39 61 39 40 42 61 39 152 193 198 209 211 220 218 209 208 218 234 217 207 238 256 216 226 223 206 203 207 207 209 221
352 355 5 31 57 50 43 44 48 31 61 77 29 59 58 360 51 50 52 31 44 42 13 273 246 204 218 228 197 217 219 221 230 253 222 223 226 230 209 200 207 211 214
356 8 9 45 50 50 43 45 48 39 37 53 52 45 59 15 42 43 42 44 41 41 44 35 21 23 22 354 310 233 221 228 224 240 260 231 214 184 210 213 213 217 217
8 23 32 35 51 59 52 45 46 42 36 45 49 52 45 42 40 43 48 43 40 42 38 43 37 31 13 2 345 340 320 255 231 231 246 250 212 209 214 217 223 212 224
16 27 30 32 38 48 56 50 47 41 49 36 47 46 46 42 36 33 47 50 45 43 39 34 36 26 14 1 358 359 351 321 306 260 250 251 231 213 213 201 227 219 224
24 27 29 31 35 43 50 57 48 40 39 42 43 48 47 40 36 42 46 45 41 39 37 29 27 19 11 2 22 46 38 359 348 332 325 279 251 216 195 202 225 216 241
29 26 28 33 37 43 43 51 51 48 47 45 49 47 47 44 34 36 41 48 46 39 35 29 23 16 11 4 29 45 46 35 27 349 355 17 343 356 337 265 215 222 237
25 25 26 30 38 38 42 45 41 39 40 36 40 40 37 34 34 33 34 39 38 38 34 31 28 19 16 8 8 33 34 17 18 19 36 353 343 344 328 287 293 309 325
20 22 31 32 38 38 36 37 35 29 39 41 39 38 35 33 32 32 28 33 35 34 34 32 34 27 20 21 28 22 22 21 3 18 26 21 13 13 0 332 327 321 267
27 20 20 43 48 40 35 36 35 37 37 35 43 40 34 31 28 30 27 21 22 20 20 24 29 31 26 29 32 27 25 7 0 9 10 14 4 11 10 32 343 308 290
21 27 34 48 55 47 38 30 25 29 28 30 32 35 30 22 21 23 22 15 14 3 9 13 13 25 24 27 31 27 16 339 344 348 4 11 2 7 8 15 9 3 342
27 27 31 43 47 57 48 39 36 33 30 27 29 27 24 17 17 15 16 15 3 1 358 3 7 16 25 21 23 17 10 359 353 3 13 11 10 359 351 353 6 5 11
30 23 28 27 37 37 62 43 36 36 38 34 31 23 17 9 5 6 2 3 358 355 350 7 9 11 17 23 22 17 10 13 5 21 18 8 353 334 330 351 346 6 9
39 33 27 35 37 53 44 62 49 38 50 47 40 19 0 358 356 2 359 347 345 349 344 9 3 5 13 12 2 12 7 1 2 7 359 322 325 342 351 354 3 355 11
35 32 22 22 26 21 45 42 87 18 104 71 351 7 17 6 1 12 7 1 0 7 19 12 15 9 14 10 7 2 357 359 359 349 353 336 323 321 340 334 1 340 43
21 33 23 17 12 17 14 11 88 140 74 79 68 86 295 15 9 18 16 15 21 18 27 19 11 2 9 355 355 337 331 349 348 346 339 343 341 334 330 341 358 17 28
6 27 14 12 5 5 15 20 17 358 22 103 54 37 26 18 19 22 24 19 22 25 20 14 359 356 356 358 352 353 344 346 339 339 345 348 339 325 339 353 341 4 21
340 14 13 358 349 352 7 13 19 17 355 340 55 39 24 24 28 34 29 31 23 21 16 10 11 4 5 2 355 353 349 354 355 355 360 352 348 335 346 1 350 324 6
359 358 357 340 328 5 29 22 5 344 331 313 339 10 352 6 33 49 52 60 29 21 11 9 3 13 0 2 354 352 347 360 356 356 354 350 349 353 335 1 358 7 38
349 336 14 360 359 19 24 3 352 349 352 333 331 266 299 8 6 348 66 98 58 51 4 9 4 15 1 357 351 353 359 3 1 358 349 344 342 341 355 359 1 359 350
340 338 12 1 3 6 358 351 333 348 340 340 329 293 302 299 293 318 147 62 109 88 43 5 28 11 359 353 14 4 7 356 354 350 345 342 340 344 346 0 19 16 16
345 342 336 336 310 334 321 322 327 320 321 320 313 317 334 341 337 323 295 231 243 180 110 104 50 24 25 10 28 5 2 348 347 346 339 337 334 347 349 355 11 16 14
319 329 328 313 306 304 317 302 289 287 287 286 289 298 310 307 305 295 279 229 212 125 155 97 140 45 23 52 63 53 38 337 328 327 328 324 323 337 341 344 352 15 13
338 333 324 320 303 299 285 278 283 276 267 260 270 272 271 268 268 267 276 178 201 234 209 230 180 175 203 94 36 15 359 349 352 344 330 305 315 328 327 346 345 356 2
326 317 309 294 290 296 311 308 302 303 311 316 302 281 270 267 266 268 258 209 200 226 245 250 199 195 203 194 170 1 347 351 360 355 343 321 307 344 341 6 339 339 15
356 4 2 359 6 358 348 345 348 335 329 332 328 319 310 286 261 234 244 210 182 192 246 189 190 203 210 182 172 349 346 357 1 357 357 355 4 7 6 355 12 4 19